APRIZESAT 9

Satellite information

Favourite Embed

Satellite Type and Status

PAYLOADIN ORBIT

Key statistics

Satellite APRIZESAT 9 at a glance.

Uptime

4147

Days in orbit

Revolutions

≈ 14.7

Per day

Orbit

SSO

Sun Synchronous Orbit

Inclination

97.9

Latest

Satellite identification and parameters

Extended collection of information and parameters for APRIZESAT 9.

Object identification

Identified? True

Debris? False

Object name: APRIZESAT 9

International designator: 2014-033J

Object number (NORAD): 40018

Object ID (CCSDS): 40018

Country: UNITED STATES OF AMERICA (US)

Current information (Y/N): Y

RCS size: MEDIUM

Orbital parameters

Period: 97.711 minutes

Inclination: 97.8751 deg

SMA: 7027.295 km

Apoapsis: 695.306 km

Periapsis: 603.015 km

RAAN: 73.4205 deg

Eccentricy: 0.00656657

Argument of periapsis: 232.8087 deg

Mean anomaly: 126.7116 deg

Mean motion: 14.73738546 rev/day

Mean motion (dot): 0.00001431 rev/day2

B* drag term: 0.00021945701 1/REarth

Two-line elements (TLE)

Creation date: Oct. 26, 2025, 2:54 a.m.

Reference frame: TEME

Reference center: EARTH

Epoch: Oct. 25, 2025, 10:38 p.m. UTC

TLE line 0: 0 APRIZESAT 9

TLE line 1: 1 40018U 14033J 25298.94351841 .00001431 00000-0 21946-3 0 9999

TLE line 2: 2 40018 97.8751 73.4205 0065666 232.8087 126.7116 14.73738546609054

Live tracking on map

Real-time ground track for satellite APRIZESAT 9.

In-orbit conjunctions

There are no conjunctions computed for APRIZESAT 9, at the moment. Check back to stay up to date, as we update our databases every day.

Go to all conjunctions

Associated space launch

APRIZESAT 9 was lifted into orbit during the mission ‘Dnepr 1 | Multipayload, 37 satellites.’, on board a Dnepr space rocket.

The launch took place on June 19, 2014, 7:11 p.m. from 370/13.

For more information about the launch, click the button.

Launch to space Dnepr 1 | Multipayload, 37 satellites.
Dnepr 1 | Multipayload, 37 satellites.

Agency: N/A

Status: Launch Successful

Launch date: June 19, 2014, 7:11 p.m. UTC

Rocket: Dnepr

Launch pad: 370/13

Location: Dombarovskiy, Russian Federation

...

Latest news about this satellite

There are no fresh news available about this satellite. Check back as we update our databases every day.


Newsletter sign-up

Weekly statistics, charts and insights to help you stay on top of the space industry.